Vertical_Velocity
-0 -5 -2 0 -5 -6 -2 0 -3 -3 3 3 3 5 -2 -2 -1 3 -0 4 -4 -1 2 -0 -3 -0 -4 -3 -3 -1 1 2 -0 5 1 -3 0 -5 -0 -4 -3 2 -2
-2 4 7 2 -3 -5 -10 -8 2 0 -4 4 -3 -4 -6 3 1 -2 -1 5 -5 5 -7 -3 -0 1 3 1 1 4 2 2 0 2 -1 4 -4 -3 -0 -6 -7 7 -2
0 -6 -5 -2 -2 1 4 2 0 3 4 3 1 -1 -2 -3 7 -2 -0 0 1 1 -3 0 -8 6 -2 2 -1 -3 -0 3 0 4 4 -1 0 -6 -0 -2 -2 -3 0
-7 -4 -6 -2 3 -0 -4 3 -4 -1 1 0 0 -4 1 1 -1 3 -2 1 4 -1 1 -4 -3 -1 -2 0 0 -2 1 -1 0 2 0 1 0 2 3 1 2 -0 0
-0 -2 -6 -5 -3 -5 -2 -8 -1 4 -2 -4 2 3 -1 -3 0 -3 -5 3 4 -1 -2 -1 1 -2 1 2 -2 -0 0 -2 1 -2 0 2 -2 4 1 2 1 1 2
-5 -0 3 -3 -4 -8 -4 -3 3 -2 -5 8 -3 3 -2 -4 0 -0 2 2 -4 -5 -4 -6 1 -2 1 1 -0 1 2 1 2 0 -1 -2 -7 3 1 1 0 0 0
1 2 3 -8 -1 4 -2 4 -3 -3 -2 0 0 -4 -1 0 3 -1 2 -1 -3 1 1 0 -0 -2 -1 -2 -1 -1 -0 0 -2 -1 -1 -4 3 -3 2 0 2 4 3
-1 -5 1 2 2 -1 -0 -8 -4 -3 -2 0 -2 0 -0 -1 0 -0 -1 0 1 3 0 1 -1 -0 -1 -1 -0 0 0 -1 -0 -1 -4 -4 1 2 -1 -2 2 1 1
-5 1 5 1 -7 -6 -4 -2 -3 -4 -0 -1 -1 -2 -3 -3 -4 -2 -2 -1 -2 -2 -3 -3 -5 -4 -3 -2 0 0 0 0 1 1 2 0 -3 0 1 1 -2 -0 -2
-12 -1 -1 -3 -4 1 -2 -4 0 -0 -1 -3 -2 -4 -0 -1 -3 -1 -2 -2 -2 -1 -1 -3 -2 -1 -3 -2 -2 -3 -2 -1 -1 0 0 1 4 2 2 -1 -2 -1 -0
-4 1 -2 -3 -4 1 -4 -4 -0 -4 -3 -3 -2 -0 0 -1 -1 -2 -2 -2 -3 -3 -3 -2 -0 0 1 1 0 -2 -2 -3 -2 -1 -1 -2 -1 0 1 3 -7 1 1
0 -5 -2 -1 -0 -0 -3 -0 -0 -2 -2 -2 -1 1 -0 0 -0 -1 -0 0 1 1 0 -1 -1 -1 -3 -2 -1 0 0 0 -1 -2 -2 -2 -0 -1 -0 1 3 2 0
-2 1 -2 -2 -1 -5 -5 -3 -5 -2 -2 -1 1 1 0 -1 -1 -2 1 1 1 -0 0 1 1 1 1 -0 -2 -2 -1 -2 -1 -1 1 -1 -3 -2 -1 -0 -2 -1 -2
0 -3 -2 -1 -3 -2 1 1 1 3 1 1 0 -1 -1 -2 -2 -1 -1 -1 -0 -2 -2 -4 -2 -2 -1 -0 -0 -0 -3 -2 -0 -1 -1 -1 -1 -1 -1 -1 -0 1 1
-3 -2 -0 -2 -2 -0 2 0 1 -0 -1 -0 0 3 1 1 1 1 1 2 1 2 1 1 2 0 -0 -1 -0 -0 -0 0 -2 -3 -2 -1 -1 -1 -1 -2 1 -1 2
-3 0 1 2 -0 3 -1 -2 -1 -1 -1 -1 0 0 -1 -2 0 -0 -0 -0 1 1 1 1 1 1 1 0 0 -2 -1 -1 1 0 -3 0 0 0 0 -1 -2 0 -0
3 3 2 -0 -1 -0 -2 -3 -2 -1 -1 -0 -1 -1 1 2 1 -1 0 -2 -1 -1 -1 -1 -0 -1 -2 -1 -2 0 -2 -2 -2 -2 -2 0 2 -1 -1 -0 -0 -0 1
3 2 0 -2 -1 -2 0 0 1 1 1 3 2 0 -0 1 0 2 3 1 2 2 -1 -2 -3 -1 -0 -2 -4 -3 3 -0 -1 -1 -3 -4 1 2 -0 -1 -3 1 -1
1 0 -0 2 6 4 2 3 3 1 -0 -2 -1 -3 -1 -4 -4 2 2 0 -0 1 1 1 2 1 -1 -0 -2 -1 -2 -3 0 -4 -4 1 -1 -3 -1 6 1 -3 -1
-1 -1 -1 -2 2 -1 -2 0 -0 -2 -2 -2 -2 -2 1 1 -0 0 1 -1 -3 1 1 3 3 -2 3 -4 -4 -1 -3 -3 -4 1 2 -1 -7 -4 -3 5 4 1 -2
2 1 -1 -1 0 0 -0 -0 -0 -1 -2 -3 -2 -1 -2 -2 -3 0 0 1 -3 -1 2 -1 -3 -0 1 5 -6 4 -1 3 -2 -0 -4 -4 -3 1 -8 -3 -3 -1 2
-1 -1 0 0 0 0 1 -2 -2 -1 -2 -1 0 0 -0 1 -1 0 -1 -1 0 -5 1 6 1 -1 -2 4 -8 -3 5 -4 6 15 -6 2 -5 -2 -4 -4 -5 1 -2
1 1 1 -1 -0 1 1 2 2 2 3 5 2 3 -1 -3 0 -1 1 1 3 -3 -4 -3 -2 -3 -5 5 -3 -3 -7 -7 4 -2 9 8 -4 -2 -5 -4 -4 -3 1
1 0 1 2 2 0 -0 1 1 1 2 -0 -1 3 2 4 1 -3 -4 -3 -2 -1 0 -1 0 1 -5 0 4 -19 11 -4 -3 -7 -24 6 4 2 -1 -6 -5 -3 -5
3 3 1 1 1 1 1 -1 -1 1 -6 0 4 2 2 3 0 3 5 4 2 3 -1 -2 -1 0 2 -9 2 8 -20 -4 7 -2 1 -13 -23 6 3 7 -3 -3 -4
2 1 1 -0 0 -0 -1 -4 1 3 7 7 2 -3 -4 -3 -1 0 -4 -7 -9 -1 2 1 2 -2 1 -3 2 -3 -2 -7 -5 -1 -2 17 12 -23 -7 9 0 1 1
Height
5853 5851 5851 5850 5848 5848 5847 5846 5843 5842 5840 5839 5839 5836 5838 5835 5836 5836 5835 5835 5833 5831 5830 5829 5828 5827 5827 5827 5828 5828 5829 5829 5831 5831 5831 5830 5830 5831 5832 5833 5835 5835 5836
5849 5849 5848 5847 5846 5844 5842 5842 5839 5837 5836 5835 5834 5834 5834 5832 5831 5831 5830 5829 5828 5826 5826 5825 5824 5823 5822 5823 5823 5824 5824 5825 5825 5825 5824 5824 5824 5824 5825 5825 5827 5829 5830
5845 5845 5845 5844 5842 5840 5838 5838 5839 5836 5835 5833 5831 5829 5829 5829 5827 5827 5826 5826 5824 5823 5823 5821 5821 5818 5819 5819 5820 5820 5820 5819 5820 5820 5819 5817 5817 5819 5819 5819 5820 5822 5825
5842 5841 5840 5839 5837 5836 5837 5836 5834 5832 5831 5829 5828 5826 5825 5824 5824 5822 5822 5821 5820 5820 5819 5817 5816 5815 5814 5814 5814 5815 5815 5815 5814 5813 5813 5812 5812 5813 5813 5814 5813 5814 5817
5837 5836 5836 5835 5835 5835 5833 5833 5831 5830 5828 5826 5825 5822 5822 5821 5820 5819 5818 5817 5817 5816 5815 5814 5814 5812 5811 5810 5810 5810 5809 5809 5809 5808 5808 5808 5807 5808 5808 5808 5807 5808 5809
5836 5835 5833 5833 5833 5831 5831 5831 5830 5828 5826 5823 5821 5820 5818 5817 5816 5815 5814 5814 5813 5811 5809 5809 5809 5808 5807 5806 5806 5805 5805 5804 5803 5804 5803 5803 5802 5802 5801 5802 5802 5802 5803
5835 5834 5832 5831 5830 5829 5830 5829 5827 5826 5824 5822 5821 5818 5817 5815 5815 5814 5813 5812 5810 5808 5807 5806 5805 5804 5803 5802 5801 5801 5800 5799 5799 5798 5798 5797 5797 5797 5796 5795 5796 5796 5796
5832 5832 5829 5829 5829 5829 5828 5826 5826 5824 5823 5822 5821 5818 5816 5815 5814 5813 5812 5810 5808 5807 5805 5803 5802 5801 5800 5799 5798 5798 5797 5796 5795 5794 5793 5793 5792 5791 5791 5789 5790 5790 5790
5831 5831 5831 5832 5831 5828 5828 5826 5825 5824 5823 5821 5820 5818 5816 5814 5813 5811 5810 5808 5806 5805 5803 5801 5800 5798 5797 5796 5795 5794 5793 5793 5791 5790 5789 5789 5788 5788 5786 5785 5783 5784 5785
5832 5832 5832 5830 5829 5827 5826 5825 5824 5824 5822 5820 5818 5816 5813 5812 5810 5808 5806 5805 5803 5801 5799 5798 5796 5794 5793 5792 5791 5790 5789 5789 5787 5786 5784 5784 5783 5782 5781 5780 5779 5779 5779
5832 5832 5830 5828 5827 5826 5825 5823 5822 5820 5819 5817 5815 5812 5810 5808 5806 5804 5803 5801 5799 5797 5795 5793 5792 5791 5789 5787 5786 5785 5784 5783 5782 5781 5779 5778 5777 5777 5777 5775 5775 5774 5775
5831 5829 5828 5826 5825 5823 5821 5820 5819 5817 5816 5814 5812 5810 5807 5805 5803 5801 5799 5797 5794 5792 5790 5788 5786 5784 5784 5782 5780 5779 5777 5776 5776 5775 5774 5773 5772 5772 5771 5771 5769 5768 5768
5830 5828 5826 5825 5823 5821 5819 5818 5817 5815 5812 5810 5808 5806 5804 5801 5799 5796 5794 5791 5789 5786 5784 5782 5780 5778 5776 5774 5773 5772 5770 5768 5767 5767 5767 5767 5766 5766 5765 5765 5764 5764 5763
5828 5826 5824 5822 5819 5817 5816 5814 5811 5809 5807 5805 5803 5801 5799 5796 5792 5789 5786 5784 5781 5780 5777 5774 5771 5769 5767 5766 5764 5763 5761 5760 5759 5758 5758 5758 5758 5759 5759 5758 5758 5758 5757
5827 5824 5821 5819 5817 5815 5813 5811 5809 5806 5803 5800 5798 5795 5792 5789 5786 5783 5780 5777 5773 5771 5768 5765 5763 5761 5759 5757 5755 5753 5751 5750 5750 5749 5748 5749 5749 5749 5749 5751 5750 5751 5751
5823 5820 5818 5816 5814 5811 5809 5807 5804 5801 5798 5795 5792 5789 5786 5782 5779 5776 5772 5768 5765 5762 5759 5756 5753 5751 5749 5747 5746 5744 5742 5740 5739 5738 5737 5739 5739 5739 5739 5740 5741 5741 5742
5818 5817 5814 5812 5810 5808 5805 5802 5799 5795 5792 5788 5785 5781 5778 5774 5771 5767 5763 5759 5755 5752 5748 5745 5743 5740 5738 5736 5734 5733 5731 5729 5728 5726 5725 5724 5726 5727 5728 5728 5728 5729 5730
5815 5813 5811 5808 5805 5802 5799 5795 5792 5788 5784 5780 5776 5773 5769 5765 5761 5756 5753 5748 5744 5741 5737 5734 5731 5728 5726 5724 5722 5720 5719 5717 5716 5714 5712 5711 5710 5711 5712 5714 5716 5717 5717
5810 5808 5805 5801 5798 5794 5791 5788 5784 5779 5775 5771 5767 5762 5759 5754 5749 5745 5741 5737 5733 5729 5726 5722 5718 5715 5712 5710 5708 5706 5705 5704 5702 5700 5699 5699 5698 5697 5697 5700 5699 5702 5704
5805 5802 5798 5795 5791 5787 5783 5779 5775 5770 5765 5761 5756 5752 5746 5741 5736 5732 5728 5723 5719 5714 5710 5707 5704 5701 5699 5696 5694 5692 5691 5689 5687 5686 5685 5684 5683 5683 5682 5682 5685 5685 5686
5800 5796 5791 5787 5784 5780 5775 5770 5765 5760 5756 5751 5746 5740 5736 5731 5726 5722 5717 5713 5708 5703 5699 5694 5690 5687 5683 5680 5678 5676 5674 5672 5671 5670 5669 5668 5667 5666 5666 5667 5666 5667 5671
5793 5790 5786 5781 5776 5771 5766 5761 5756 5751 5746 5741 5735 5730 5725 5720 5715 5710 5705 5699 5694 5689 5685 5681 5676 5672 5669 5665 5660 5658 5657 5655 5653 5655 5651 5649 5649 5649 5649 5648 5650 5650 5650
5787 5783 5778 5772 5767 5762 5757 5752 5747 5741 5736 5730 5725 5719 5713 5706 5700 5695 5689 5684 5680 5675 5671 5667 5662 5657 5654 5651 5645 5641 5638 5637 5632 5631 5634 5634 5629 5629 5629 5630 5629 5631 5633
5778 5774 5769 5764 5759 5754 5747 5742 5737 5731 5725 5720 5715 5707 5700 5694 5687 5680 5675 5670 5665 5659 5654 5649 5643 5639 5633 5634 5626 5623 5623 5619 5615 5611 5608 5610 5610 5608 5609 5609 5610 5610 5613
5768 5764 5759 5753 5748 5743 5737 5731 5725 5719 5712 5705 5699 5692 5685 5678 5669 5662 5655 5649 5644 5638 5633 5628 5623 5617 5611 5608 5604 5600 5596 5596 5596 5591 5590 5585 5584 5587 5588 5590 5589 5589 5591
5759 5753 5747 5742 5736 5731 5725 5719 5714 5706 5700 5693 5684 5676 5668 5660 5653 5646 5638 5630 5624 5618 5612 5607 5602 5596 5590 5584 5581 5576 5573 5571 5570 5566 5567 5569 5562 5559 5564 5567 5568 5569 5569